Regional Weather Roundup
Issued by NWS Mt. Holly, NJ

Home | Current Version | Previous Version | Text Only | Print | Product List | Glossary On
Versions: 1 2 3 4 5 6 7 8 9 10 11 12 13 14 15 16 17 18 19 20 21 22 23 24 25 26 27 28
000
ASUS41 KPHI 182111
RWRPHI

REGIONAL WEATHER ROUNDUP
NATIONAL WEATHER SERVICE MOUNT HOLLY NJ
400 PM EST WED JAN 18 2017

NOTE:  "FAIR" INDICATES FEW OR NO CLOUDS BELOW 12,000 FEET WITH NO
SIGNIFICANT WEATHER AND/OR OBSTRUCTIONS TO VISIBILITY.

 * = STATION DOES NOT REPORT PRECIPITATION (E.G. RAIN, SNOW, ETC.)
        OR FOG.

NJZ015>026-182200-
SOUTHERN NEW JERSEY

CITY           SKY/WX    TMP DP  RH WIND       PRES   REMARKS
POMONA         CLOUDY    46  39  76 N15       29.94R
WILDWOOD*      CLOUDY    45  42  89 NW5       29.96
MILLVILLE      CLOUDY    49  43  80 N8        29.95R
WRIGHTSTOWN    CLOUDY    43  41  93 NW9       29.93R
MOUNT HOLLY    CLOUDY    45  39  79 N8        29.96R
TRENTON        CLOUDY    44  39  82 N9        29.95R

$$
NJZ001>014-182200-
NORTHERN NEW JERSEY

CITY           SKY/WX    TMP DP  RH WIND       PRES   REMARKS
SUSSEX         CLOUDY    40  37  89 N3        29.97R
ANDOVER*         N/A     39  36  89 N3        29.97R
MORRISTOWN     CLOUDY    41  37  87 E5        29.98R
NEWARK         CLOUDY    42  38  85 N12       29.96S
TETERBORO      CLOUDY    43  37  79 N8        29.95S
CALDWELL       CLOUDY    41  36  82 N3        29.98R
SOMERVILLE     CLOUDY    43  36  76 N7        29.95R
ALLAIRE*       CLOUDY    40  39  97 N9        29.95S FOG     WCI  34
TOMS RIVER*    CLOUDY    41  40  96 N5        29.96R FOG

$$
PAZ043-044-047-054-055-060>062-066>071-182200-
EASTERN PENNSYLVANIA

CITY           SKY/WX    TMP DP  RH WIND       PRES   REMARKS
PHILADELPHIA   CLOUDY    47  40  76 N8        29.97R
NORTH PHILA    CLOUDY    46  40  79 N9        29.98R
BLUE BELL*     CLOUDY    43  39  87 CALM      29.96R
DOYLESTOWN     CLOUDY    44  39  82 N7        29.96R
QUAKERTOWN*    CLOUDY    45  39  81 N3        29.97R
PERKASIE*      CLOUDY    41  39  93 CALM      29.97R
POTTSTOWN      CLOUDY    47  38  71 NW9       29.98R
LANCASTER      CLOUDY    49  41  74 N8        29.97R
COATESVILLE    CLOUDY    48  39  71 N10       29.97R
READING        CLOUDY    48  38  68 N9        29.97R
ALLENTOWN      CLOUDY    43  37  79 NE5       29.98R
MOUNT POCONO   CLOUDY    36  34  92 NW9       29.92R WCI  29
HAZLETON       CLOUDY    37  37 100 W6        29.97R FOG     WCI  33
LEHIGHTON        N/A     43  39  87 CALM      29.98R
WILKES BARRE   CLOUDY    40  39  97 NW6       29.97R

$$
DEZALL-MDZ008-012-015-019-020-182200-
DELAWARE AND EASTERN MARYLAND

CITY           SKY/WX    TMP DP  RH WIND       PRES   REMARKS
WILMINGTON     CLOUDY    51  41  68 N9        29.96R
DOVER          CLOUDY    50  50  99 N8        29.90R
GEORGETOWN     CLOUDY    53  42  66 N10G18    29.95R
EASTON         CLOUDY    54  41  62 N7        30.00R
ABERDEEN       CLOUDY    52  41  66 N6        29.98R
PATUXENT       PTSUNNY   55  40  56 NW13G24   29.96R
OCEAN CITY     CLOUDY    51  45  79 N7        29.95R
WALLOPS ISLAND PTSUNNY   53  46  77 N7        29.95R
CAMBRIDGE      CLOUDY    52  41  66 NW9       29.96R
SALISBURY      CLOUDY    53  44  71 NW13      29.95R

$$
PAZ001-021-NYZ056-072-MDZ011-DCZ001-182200-
OTHER NEARBY LOCATIONS

CITY           SKY/WX    TMP DP  RH WIND       PRES   REMARKS
HARRISBURG     CLOUDY    50  39  66 NW13      29.97R
STATE COLLEGE  CLOUDY    41  36  81 W10G18    30.01R
WILLIAMSPORT   CLOUDY    45  39  79 NW7       29.98R
BINGHAMTON     FOG       35  34  96 NW5       29.95R VSB 1   WCI  31
NEW YORK CITY  CLOUDY    41  36  82 NE6       29.97F
BALTIMORE      PTSUNNY   54  40  59 NW16G22   29.96R
WASHINGTON DC  PTSUNNY   57  38  48 NW14G25   29.98R

$$




USA.gov is the U.S. government's official web portal to all federal, state and local government web resources and services.